Stations météo

Publicité
Bastia, France (7790): Température de l'air & dewpoint: 13.03.2019 15:00:00 - 19.03.2019 15:00:00 (CET)Bastia, France (7790): Température de l'air 5cm: 13.03.2019 15:00:00 - 19.03.2019 15:00:00 (CET)Bastia, France (7790): Température de l'air -20cm & Température de l'air -100cm: 13.03.2019 15:00:00 - 19.03.2019 15:00:00 (CET)Bastia, France (7790): Vitesse du vent & gusts: 13.03.2019 15:00:00 - 19.03.2019 15:00:00 (CET)Bastia, France (7790): Direction du vent: 13.03.2019 15:00:00 - 19.03.2019 15:00:00 (CET)Bastia, France (7790): reduced air pressure: 13.03.2019 15:00:00 - 19.03.2019 15:00:00 (CET)Bastia, France (7790): visibility: 13.03.2019 15:00:00 - 19.03.2019 15:00:00 (CET)Bastia, France (7790): Ensoleillement: 13.03.2019 15:00:00 - 19.03.2019 15:00:00 (CET)Bastia, France (7790): Quantités de précipitations: 13.03.2019 15:00:00 - 19.03.2019 15:00:00 (CET)
Date & Time tt [°C] td [°C] tt 5cm [°C] tt -20cm [°C] tt -100cm [°C] ff [km/h] ff [knt] fx [km/h] fx [knt] dd ppp [hPa] vv [km] sd [min] rr [mm]
19.03.2019 15:00:00 13,2 3,3 19,5 12,3 12,4 22 12 41 22 N 1020,6 60 53 0,0
19.03.2019 14:00:00 13,5 4,1 16,9 12,3 12,4 23 13 37 20 N 1020,5 28 48 0,0
19.03.2019 13:00:00 12,2 4,2 16,8 12,4 12,4 21 12 37 20 N 1020,8 38 52 0,0
19.03.2019 12:00:00 13,2 4,1 14,9 12,4 12,4 23 12 37 20 N 1020,8 43 49 0,0
19.03.2019 11:00:00 11,8 4,7 13,2 12,4 12,4 22 12 33 18 N 1020,6 52 23 0,0
19.03.2019 10:00:00 11,3 5,2 12,3 12,4 12,4 20 11 33 18 NNE 1020,3 47 0 0,0
19.03.2019 09:00:00 10,9 3,9 10,8 12,4 12,4 25 14 39 21 NNE 1019,6 54 33 0,0
19.03.2019 08:00:00 10,7 5,0 9,0 12,5 12,4 23 12 36 19 NNE 1019,0 45 14 0,0
19.03.2019 07:00:00 10,4 5,2 8,0 12,5 12,4 20 11 36 19 NNE 1018,1 20 12 0,0
19.03.2019 06:00:00 10,3 5,5 8,3 12,5 12,4 16 9 29 16 NNE 1017,6 20 0 0,2
19.03.2019 05:00:00 10,2 5,0 5,6 12,5 12,3 13 7 24 13 N 1017,4 20 0 0,0
19.03.2019 04:00:00 8,5 3,7 4,9 12,6 12,4 7 4 19 10 WSW 1017,0 20 0 0,0
19.03.2019 03:00:00 9,5 3,7 7,5 12,6 12,3 16 9 34 18 SW 1016,8 20 0 0,0
19.03.2019 02:00:00 10,6 4,7 7,5 12,6 12,3 9 5 20 11 WNW 1017,0 20 0 0,0
19.03.2019 01:00:00 10,8 4,3 6,1 12,7 12,3 9 5 21 11 W 1016,7 - 0 0,0
19.03.2019 00:00:00 10,0 4,6 5,0 12,7 12,4 10 5 26 14 WSW 1016,8 - 0 0,0
18.03.2019 23:00:00 11,4 5,5 9,4 12,7 12,3 19 11 44 24 N 1017,2 60 0 0,0
18.03.2019 22:00:00 11,9 1,2 4,4 12,7 12,3 23 12 32 17 NNW 1016,3 60 0 0,0
18.03.2019 21:00:00 12,5 -0,4 2,2 12,7 12,3 10 6 24 13 W 1015,4 60 0 0,0
18.03.2019 20:00:00 12,7 -0,9 5,6 12,6 12,3 8 4 32 17 WNW 1014,6 60 0 0,0
18.03.2019 19:00:00 13,5 -0,9 10,9 12,6 12,3 18 10 37 20 WNW 1014,1 - 10 0,0
18.03.2019 18:00:00 14,3 -0,6 12,9 12,5 12,3 21 11 39 21 NW 1013,5 46 28 0,0
18.03.2019 17:00:00 14,5 0,7 14,3 12,5 12,3 26 14 40 22 NW 1012,9 45 34 0,0
18.03.2019 16:00:00 16,7 -1,9 21,1 12,5 12,3 23 12 45 24 NW 1012,6 29 60 0,0
18.03.2019 15:00:00 16,0 0,1 21,1 12,5 12,3 29 16 52 28 NW 1012,5 28 55 0,0
18.03.2019 14:00:00 16,7 3,7 24,4 12,4 12,3 32 17 53 29 NW 1012,7 30 58 0,0
18.03.2019 13:00:00 16,9 0,9 22,6 12,5 12,3 32 17 51 28 WNW 1012,6 35 53 0,0
18.03.2019 12:00:00 17,1 -0,2 26,4 12,5 12,3 32 18 54 29 WNW 1012,6 39 60 0,0
18.03.2019 11:00:00 17,8 -6,2 26,4 12,5 12,3 23 12 45 24 W 1012,4 47 60 0,0
18.03.2019 10:00:00 16,3 2,3 16,8 12,6 12,3 14 8 31 17 WSW 1012,3 46 60 0,0
18.03.2019 09:00:00 14,3 7,3 10,7 12,6 12,2 11 6 22 12 SW 1012,0 23 60 0,0
18.03.2019 08:00:00 11,9 8,9 8,0 12,6 12,3 3 2 19 10 WSW 1011,7 52 48 0,0
18.03.2019 07:00:00 9,2 7,6 6,2 12,7 12,2 10 5 13 7 SSW 1011,3 30 1 0,0
18.03.2019 06:00:00 8,0 6,8 3,1 12,7 12,2 4 2 11 6 WSW 1011,3 20 0 0,0
18.03.2019 05:00:00 7,6 6,1 3,0 12,8 12,3 8 4 11 6 SW 1011,2 19 0 0,2
18.03.2019 04:00:00 8,0 6,8 2,6 12,8 12,3 10 6 13 7 SSW 1011,2 20 0 0,0
18.03.2019 03:00:00 9,1 7,5 3,1 12,8 12,3 7 4 10 5 W 1011,8 20 0 0,0
18.03.2019 02:00:00 9,5 7,6 3,5 12,8 12,2 6 3 10 5 SW 1012,3 20 0 0,0
18.03.2019 01:00:00 10,8 9,1 5,8 12,8 12,2 6 4 14 8 NW 1012,9 20 0 0,0
18.03.2019 00:00:00 11,4 9,6 6,5 12,8 12,2 8 5 12 7 W 1012,9 19 0 0,0
17.03.2019 23:00:00 12,0 10,2 8,8 12,7 12,2 9 5 14 8 WNW 1012,7 19 0 0,0
17.03.2019 22:00:00 13,1 10,6 12,2 12,7 12,2 6 3 23 13 N 1013,0 20 0 0,0
17.03.2019 21:00:00 13,4 10,7 12,8 12,7 12,2 9 5 24 13 SE 1013,2 20 0 0,0
17.03.2019 20:00:00 13,5 10,8 12,9 12,6 12,2 16 9 30 16 SE 1013,5 33 0 0,0
17.03.2019 19:00:00 13,5 10,7 13,0 12,6 12,2 16 9 26 14 SE 1013,8 33 0 0,0
17.03.2019 18:00:00 13,7 10,3 13,5 12,5 12,2 13 7 27 15 SE 1014,3 37 0 0,0
17.03.2019 17:00:00 13,9 9,9 14,5 12,4 12,2 17 9 31 17 SE 1014,4 42 0 0,0
17.03.2019 16:00:00 14,5 9,3 16,5 12,4 12,2 16 9 24 13 SE 1015,0 44 0 0,0
17.03.2019 15:00:00 14,9 9,0 19,3 12,4 12,2 16 9 29 16 ESE 1015,4 33 1 0,0
17.03.2019 14:00:00 15,2 9,3 20,4 12,3 12,2 20 11 31 17 ESE 1015,8 20 0 0,0
17.03.2019 13:00:00 15,7 9,4 23,7 12,3 12,2 22 12 36 19 SE 1016,5 20 51 0,0
17.03.2019 12:00:00 16,0 9,6 21,4 12,3 12,2 20 11 32 17 SE 1016,9 45 58 0,0
17.03.2019 11:00:00 15,2 9,1 15,7 12,3 12,2 16 9 25 13 ESE 1017,4 46 1 0,0
17.03.2019 10:00:00 14,0 9,2 15,8 12,3 12,2 12 6 21 11 SSE 1017,7 35 0 0,0
17.03.2019 09:00:00 13,8 9,0 13,2 12,3 12,2 8 4 13 7 SW 1017,7 42 0 0,0
17.03.2019 08:00:00 12,9 9,2 11,7 12,3 12,2 8 5 12 6 SW 1017,8 32 0 0,0
17.03.2019 07:00:00 12,6 9,4 11,1 12,3 12,2 8 5 14 7 SW 1017,3 22 0 0,0
17.03.2019 06:00:00 12,3 9,3 11,1 12,3 12,2 8 4 13 7 SW 1017,5 22 0 0,0
17.03.2019 05:00:00 12,4 9,6 11,3 12,3 12,2 6 4 9 5 SW 1017,6 20 0 0,0
17.03.2019 04:00:00 12,2 9,6 11,3 12,3 12,2 3 2 5 3 S 1017,6 20 0 0,0
17.03.2019 03:00:00 12,5 9,7 11,4 12,3 12,2 4 2 5 3 SSW 1018,0 19 0 0,0
17.03.2019 02:00:00 12,6 9,8 11,6 12,3 12,2 3 1 7 4 SSW 1018,5 19 0 0,0
17.03.2019 01:00:00 12,6 9,8 11,6 12,2 12,2 4 2 8 4 SW 1018,7 18 0 0,0
17.03.2019 00:00:00 12,7 10,1 11,7 12,2 12,2 5 3 7 4 S 1019,1 19 0 0,0
16.03.2019 23:00:00 12,9 10,3 11,7 12,2 12,1 5 3 5 3 S 1019,0 16 0 0,0
16.03.2019 22:00:00 12,9 10,3 11,5 12,1 12,2 3 1 5 3 SE 1019,1 16 0 0,0
16.03.2019 21:00:00 13,2 10,4 11,9 12,1 12,1 3 2 5 3 S 1018,8 17 0 0,0
16.03.2019 20:00:00 13,2 10,4 10,7 12,0 12,2 3 2 5 3 SSW 1018,6 17 0 0,0
16.03.2019 19:00:00 12,8 10,2 9,2 11,9 12,1 4 2 11 6 S 1018,4 18 0 0,0
16.03.2019 18:00:00 13,7 10,5 12,3 11,8 12,1 9 5 17 9 E 1017,7 16 60 0,0
16.03.2019 17:00:00 15,7 10,2 17,3 11,8 12,1 11 6 16 9 ENE 1017,1 18 60 0,0
16.03.2019 16:00:00 16,5 10,3 27,3 11,7 12,2 8 5 19 11 NE 1017,1 19 60 0,0
16.03.2019 15:00:00 16,2 9,8 27,8 11,6 12,1 11 6 30 16 NW 1017,3 18 60 0,0
16.03.2019 14:00:00 15,9 10,2 23,8 11,6 12,1 12 7 29 16 NE 1017,8 18 24 0,0
16.03.2019 13:00:00 16,0 11,2 25,6 11,6 12,1 11 6 21 12 NE 1018,1 19 30 0,0
16.03.2019 12:00:00 16,2 10,9 24,9 11,6 12,1 11 6 22 12 ENE 1018,4 19 46 0,0
16.03.2019 11:00:00 15,7 10,5 18,2 11,7 12,1 8 4 16 8 ENE 1018,1 18 17 0,0
16.03.2019 10:00:00 13,8 9,6 12,7 11,7 12,1 4 2 8 5 S 1018,0 18 0 0,0
16.03.2019 09:00:00 11,1 8,3 10,4 11,7 12,1 4 2 13 7 WSW 1017,9 20 0 0,0
16.03.2019 08:00:00 9,6 7,4 7,6 11,8 12,1 6 3 12 7 SW 1017,4 20 16 0,0
16.03.2019 07:00:00 8,1 6,6 3,8 11,8 12,1 8 5 14 8 SW 1017,2 20 0 0,0
16.03.2019 06:00:00 7,0 5,5 2,1 11,9 12,1 10 5 16 9 SW 1016,7 20 0 0,0
16.03.2019 05:00:00 7,0 5,3 1,7 11,9 12,1 10 5 14 8 SW 1016,3 20 0 0,0
16.03.2019 04:00:00 6,7 5,3 1,9 12,0 12,1 7 4 12 6 SW 1016,0 20 0 0,0
16.03.2019 03:00:00 7,2 5,7 1,7 12,0 12,1 8 4 11 6 SW 1016,2 20 0 0,0
16.03.2019 02:00:00 7,1 5,7 1,2 12,0 12,1 7 4 11 6 SW 1016,6 20 0 0,0
16.03.2019 01:00:00 7,6 5,6 1,3 12,0 12,1 8 4 12 7 SW 1016,8 20 0 0,0
16.03.2019 00:00:00 7,6 6,1 1,3 12,0 12,1 6 4 10 6 SSW 1016,7 20 0 0,0
15.03.2019 23:00:00 8,6 6,6 2,2 12,0 12,1 4 2 12 7 WSW 1016,7 20 0 0,0
15.03.2019 22:00:00 9,1 7,2 2,8 12,0 12,1 6 4 10 5 SW 1016,4 20 0 0,0
15.03.2019 21:00:00 8,9 7,0 4,0 11,9 12,1 7 4 9 5 SSW 1015,8 15 0 0,0
15.03.2019 20:00:00 10,8 8,0 4,1 11,9 12,1 5 3 8 4 WNW 1015,7 19 0 0,0
15.03.2019 19:00:00 12,2 8,8 5,7 11,8 12,1 3 2 7 4 SSE 1014,8 20 7 0,0
15.03.2019 18:00:00 14,1 9,7 12,9 11,7 12,0 7 4 11 6 ENE 1014,5 20 60 0,0
15.03.2019 17:00:00 15,7 9,6 18,3 11,7 12,1 7 4 18 10 NNE 1014,4 48 47 0,0
15.03.2019 16:00:00 15,4 9,5 22,2 11,6 12,1 10 5 16 9 NE 1014,3 45 40 0,0
15.03.2019 15:00:00 15,8 11,0 22,9 11,5 12,0 11 6 19 10 ENE 1014,1 37 17 0,0
15.03.2019 14:00:00 15,6 10,4 23,7 11,5 12,1 9 5 19 10 ENE 1014,1 46 14 0,0
15.03.2019 13:00:00 16,5 8,5 22,9 11,5 12,1 9 5 24 13 ESE 1014,6 49 37 0,0
15.03.2019 12:00:00 15,8 10,3 22,0 11,5 12,0 16 9 24 13 ESE 1014,6 20 46 0,0
15.03.2019 11:00:00 15,6 10,1 22,2 11,6 12,0 16 8 26 14 ESE 1014,2 59 50 0,0
15.03.2019 10:00:00 16,8 5,4 16,8 11,7 12,1 8 4 19 10 S 1013,5 52 60 0,0
15.03.2019 09:00:00 15,0 5,8 11,5 11,7 12,0 9 5 21 11 SE 1013,6 53 60 0,0
15.03.2019 08:00:00 12,6 5,0 5,2 11,7 12,1 12 7 34 18 SSW 1013,1 55 60 0,0
15.03.2019 07:00:00 9,5 4,3 2,7 11,8 12,1 7 4 21 11 S 1012,5 60 5 0,0
15.03.2019 06:00:00 9,2 4,2 0,8 11,8 12,0 9 5 19 10 WSW 1012,1 20 0 0,0
15.03.2019 05:00:00 6,6 2,5 1,3 11,8 12,0 8 4 15 8 E 1011,7 20 0 0,0
15.03.2019 04:00:00 9,9 3,0 2,7 11,9 12,0 7 4 15 8 W 1011,3 20 0 0,0
15.03.2019 03:00:00 11,3 3,3 7,5 11,9 12,1 11 6 34 19 SSE 1011,8 20 0 0,0
15.03.2019 02:00:00 11,4 1,9 2,7 11,9 12,0 12 7 24 13 SSE 1011,9 20 0 0,0
15.03.2019 01:00:00 9,7 2,5 3,1 11,9 12,0 8 4 16 9 SSE 1011,8 20 0 0,0
15.03.2019 00:00:00 10,4 2,5 3,5 12,0 12,1 5 3 16 9 SSE 1011,7 20 0 0,0
14.03.2019 23:00:00 10,6 1,9 5,2 12,0 12,1 8 4 26 14 WSW 1012,6 20 0 0,0
14.03.2019 22:00:00 10,1 2,2 3,2 11,9 12,0 9 5 14 8 SSW 1012,4 20 0 0,0
14.03.2019 21:00:00 9,0 2,3 2,1 11,9 12,1 9 5 13 7 S 1012,5 20 0 0,0
14.03.2019 20:00:00 10,0 2,6 2,6 11,8 12,0 4 2 11 6 NNW 1012,9 20 0 0,0
14.03.2019 19:00:00 11,5 3,3 3,4 11,7 12,0 4 2 9 5 NW 1013,4 20 3 0,0
14.03.2019 18:00:00 13,2 3,3 8,5 11,6 12,0 4 2 10 5 SSE 1013,5 60 17 0,0
14.03.2019 17:00:00 14,9 3,4 15,2 11,5 12,0 8 4 29 16 E 1013,5 58 58 0,0
14.03.2019 16:00:00 16,0 2,7 25,3 11,5 12,0 12 7 24 13 SE 1013,9 60 60 0,0
14.03.2019 15:00:00 16,9 3,2 27,3 11,5 12,0 15 8 29 15 ESE 1014,0 52 60 0,0
14.03.2019 14:00:00 17,0 -4,3 28,0 11,4 12,0 18 10 34 18 SE 1014,7 53 60 0,0
14.03.2019 13:00:00 17,4 -0,4 27,4 11,4 12,0 21 12 39 21 SE 1015,5 59 60 0,0
14.03.2019 12:00:00 18,8 1,3 31,0 11,4 12,0 11 6 23 12 ESE 1015,3 60 60 0,0
14.03.2019 11:00:00 17,2 -3,0 26,9 11,5 12,0 11 6 20 11 NE 1015,9 60 60 0,0
14.03.2019 10:00:00 16,9 -3,8 17,2 11,5 12,1 6 4 23 13 E 1016,1 57 60 0,0
14.03.2019 09:00:00 14,9 -2,5 9,9 11,5 12,0 14 8 29 16 WSW 1016,3 53 60 0,0
14.03.2019 08:00:00 12,9 -2,6 5,0 11,5 12,0 9 5 27 14 SW 1016,5 53 60 0,0
14.03.2019 07:00:00 11,7 -1,1 3,1 11,6 12,0 11 6 29 16 W 1015,8 20 0 0,0
14.03.2019 06:00:00 11,5 -1,3 5,6 11,6 12,0 16 9 33 18 WNW 1015,8 20 0 0,0
14.03.2019 05:00:00 11,3 -0,5 5,2 11,6 12,0 12 6 27 15 NW 1015,3 20 0 0,0
14.03.2019 04:00:00 11,6 1,5 8,7 11,6 12,0 16 9 39 21 WNW 1015,0 60 0 0,0
14.03.2019 03:00:00 12,4 3,3 9,2 11,6 12,0 23 12 41 22 W 1014,7 60 0 0,0
14.03.2019 02:00:00 12,6 1,9 10,1 11,7 12,0 22 12 60 32 WNW 1014,3 60 0 0,0
14.03.2019 01:00:00 13,3 1,0 9,4 11,7 12,0 31 17 59 32 WNW 1013,9 20 0 0,0
14.03.2019 00:00:00 12,5 4,9 9,5 11,6 12,0 26 14 46 25 W 1013,5 20 0 0,0
13.03.2019 23:00:00 13,0 1,9 8,5 11,6 12,0 18 10 34 18 WNW 1012,7 20 0 0,0
13.03.2019 22:00:00 13,3 1,0 9,9 11,6 12,0 21 11 39 21 W 1011,9 20 0 0,0
13.03.2019 21:00:00 14,3 -0,6 10,9 11,5 12,0 29 15 50 27 W 1011,7 20 0 0,0
13.03.2019 20:00:00 14,0 -1,6 9,7 11,5 12,1 28 15 48 26 W 1010,8 20 0 0,0
13.03.2019 19:00:00 13,8 -3,5 8,7 11,4 12,0 16 9 32 17 SSE 1010,6 20 0 0,0
13.03.2019 18:00:00 15,3 -3,1 11,7 11,3 12,0 15 8 52 28 SW 1010,3 20 60 0,0
13.03.2019 17:00:00 15,8 4,5 15,9 11,2 12,0 7 4 13 7 E 1009,5 19 60 0,0
13.03.2019 16:00:00 16,4 6,5 26,2 11,2 12,0 5 3 27 15 SSW 1009,8 20 60 0,0
13.03.2019 15:00:00 15,7 8,9 26,7 11,1 12,0 20 11 41 22 NNE 1010,8 60 60 0,0

tt = Température de l'air
td = dewpoint
tt 5cm = Température de l'air 5cm
tt -20cm = Température de l'air -20cm
tt -100cm = Température de l'air -100cm
ff = Vitesse du vent
fx = gusts
dd = Direction du vent
ppp = reduced air pressure
vv = visibility
sd = Ensoleillement
rr = Quantités de précipitations

stations d'obs. à proximité